Weather History for Rawlins, WY

Change the Weather History Date:

Monday, June 24, 2013

  Actual Average Record
Temperature  
Mean Temperature 63 °F 62 °F  
Max Temperature 84 °F 79 °F 95 °F (2012)
Min Temperature 41 °F 46 °F 32 °F (1999)
Degree Days  
Heating Degree Days 2 4  
Month to date heating degree days 101 173  
Since 1 June heating degree days 101 173  
Since 1 July heating degree days 8000 8376  
Cooling Degree Days 0 1  
Month to date cooling degree days 10 8  
Year to date cooling degree days 11 8  
Since 1 June cooling degree days 10 8  
Growing Degree Days 12 (Base 50)    
Moisture  
Dew Point 19 °F    
Average Humidity 23    
Maximum Humidity 39    
Minimum Humidity 6    
Precipitation  
Precipitation 0.00 in 0.03 in 0.66 in (1958)
Month to date precipitation 0.02 0.88  
Year to date precipitation 2.09 4.80  
Sea Level Pressure  
Sea Level Pressure 29.65 in    
Wind  
Wind Speed 15 mph (SSW)    
Max Wind Speed 31 mph    
Max Gust Speed 40 mph    
Visibility 10 miles    
Events      
T = Trace of Precipitation, MM = Missing Value Source: NWS Daily Summary

Daily Weather History Graph

Daily Weather History Graph

Search for Another Location

Airport:

Trip Planner

Search our weather history database for the weather conditions in past years. The results will help you decide how hot, cold, wet, or windy it might be!

Date:

Astronomy

Jun. 24, 2013 Rise Set
Actual Time 5:34 AM MDT 8:47 PM MDT
Civil Twilight 5:00 AM MDT 9:21 PM MDT
Nautical Twilight 4:16 AM MDT 10:06 PM MDT
Astronomical Twilight 3:23 AM MDT 10:59 PM MDT
Moon 9:50 PM MDT (6/24) 7:07 AM MDT (6/24)
Length of Visible Light 16h 21m
Length of Day
15h 12m
Full, 97% of the Moon is Illuminated
Jun 24
Full
Jun 29
Last Quarter
Jul 8
New
Jul 15
First Quarter
Jul 22
Full

Hourly Weather History & Observations

Time (MDT) Temp. Windchill Dew Point Humidity Pressure Visibility Wind Dir Wind Speed Gust Speed Precip Events Conditions
12:53 AM 55.0 °F - 16.0 °F 22% 29.66 in 10.0 mi East 6.9 mph - N/A   Clear
1:53 AM 50.0 °F - 18.0 °F 28% 29.68 in 10.0 mi Calm Calm - N/A   Clear
2:53 AM 45.0 °F - 18.0 °F 34% 29.68 in 10.0 mi Calm Calm - N/A   Clear
3:53 AM 46.0 °F - 18.0 °F 33% 29.67 in 10.0 mi Calm Calm - N/A   Clear
4:53 AM 46.0 °F 43.9 °F 18.0 °F 33% 29.65 in 10.0 mi SE 4.6 mph - N/A   Clear
5:53 AM 43.0 °F - 19.0 °F 38% 29.69 in 10.0 mi Calm Calm - N/A   Clear
6:53 AM 53.1 °F - 26.1 °F 35% 29.67 in 10.0 mi Calm Calm - N/A   Clear
7:53 AM 61.0 °F - 30.9 °F 32% 29.65 in 10.0 mi East 5.8 mph - N/A   Clear
8:53 AM 68.0 °F - 27.0 °F 21% 29.65 in 10.0 mi Variable 3.5 mph - N/A   Clear
9:53 AM 77.0 °F - 19.9 °F 12% 29.60 in 10.0 mi SSW 20.7 mph 26.5 mph N/A   Clear
10:01 AM 77.0 °F - 19.4 °F 12% 29.92 in 10.0 mi South 21.9 mph 29.9 mph N/A   Clear
10:53 AM 78.1 °F - 17.1 °F 10% 29.63 in 10.0 mi SSW 28.8 mph 34.5 mph N/A   Clear
11:53 AM 78.1 °F - 19.9 °F 11% 29.62 in 10.0 mi South 23.0 mph 33.4 mph N/A   Clear
12:53 PM 81.0 °F - 17.1 °F 9% 29.62 in 10.0 mi SSW 25.3 mph 35.7 mph N/A   Clear
1:53 PM 82.9 °F - 12.9 °F 7% 29.61 in 10.0 mi SSW 25.3 mph 33.4 mph N/A   Clear
2:53 PM 81.0 °F - 12.0 °F 7% 29.63 in 10.0 mi SW 17.3 mph 33.4 mph N/A   Clear
3:53 PM 80.1 °F - 15.1 °F 9% 29.62 in 10.0 mi SSW 19.6 mph 31.1 mph N/A   Clear
4:53 PM 82.9 °F - 9.0 °F 6% 29.60 in 10.0 mi SW 19.6 mph 31.1 mph N/A   Clear
5:53 PM 80.1 °F - 12.0 °F 8% 29.62 in 10.0 mi SSW 19.6 mph 33.4 mph N/A   Clear
6:53 PM 77.0 °F - 16.0 °F 10% 29.61 in 10.0 mi SSW 21.9 mph 28.8 mph N/A   Clear
7:53 PM 75.0 °F - 18.0 °F 12% 29.60 in 10.0 mi SSW 23.0 mph 29.9 mph N/A   Clear
8:53 PM 72.0 °F - 18.0 °F 13% 29.59 in 10.0 mi SSW 15.0 mph 23.0 mph N/A   Clear
9:53 PM 71.1 °F - 21.0 °F 15% 29.60 in 10.0 mi SW 20.7 mph 29.9 mph N/A   Clear
10:53 PM 69.1 °F - 25.0 °F 19% 29.63 in 10.0 mi SW 21.9 mph 32.2 mph N/A   Scattered Clouds
11:53 PM 66.9 °F - 28.9 °F 24% 29.66 in 10.0 mi SSW 19.6 mph 33.4 mph N/A   Partly Cloudy